Tracking 30509 objects as of 21-May-2025
HD Live streaming from Space Station
objects crossing your sky now

STARLINK-6064

Track STARLINK-6064 now!
10-day predictions
STARLINK-6064 is classified as:


NORAD ID: 56805
Int'l Code: 2023-078AQ
Perigee: 577.4 km
Apogee: 581.0 km
Inclination: 70.0 °
Period: 96.1 minutes
Semi major axis: 6950 km
RCS: Unknown
Launch date: May 31, 2023
Source: United States (US)
Launch site: AIR FORCE WESTERN TEST RANGE (AFWTR)
Your satellite tracking list
Your tracking list is empty




NASA's NSSDC Master Catalog

Two Line Element Set (TLE):
1 56805U 23078AQ  25141.60814048  .00000010  00000-0  85946-5 0  9996
2 56805  69.9991 340.8507 0002635 269.5434  90.5423 14.98323035109422
Source of the keplerian elements: AFSPC